KUIPER-00513

导读

KUIPER-00513(NORAD编号69598)是亚马逊柯伊伯(Project Kuiper)低轨互联网星座的组成卫星,属于该项目2025年下半年发射的批次卫星,初始部署高度约465公里,后续将抬升至约630公里的工作轨道,轨道倾角约51.9度,当前处于在轨运行状态。 柯伊伯星座计划部署3232颗低轨卫星,为全球偏远地区、海上及航空场景提供高带宽、低延迟的互联网接入服务,截至2025年9月该星座在轨卫星已达129颗,KUIPER-00513作为其中一员,将参与支撑亚马逊达成美国联邦通信委员会要求的2026年7月前完成半数星座部署的监管目标,未来还将为JetBlue等客户的机上互联服务提供通信支持。

基本信息
目录编号:
69598
目录名称:
KUIPER-00513
国际标识:
2026-140G
轨道中心:
EARTH
卫星名称:
KUIPER-00513
卫星全名:
KUIPER-00513
卫星状态:
在轨 (已飞行70 天)
发射日期:
2026-06-17 UTC
国别 :
美国 (US)
星等 :
--
轨道信息
数据来源 国际轨道数据
星历时间: 2026-08-26T12:00:02+0800
6小时前
查看轨道信息
半长轴: 7002.14km
偏心率: 0.0001896
轨道倾角: 51.899°
近地点辐角 87.185°
升交点赤经 66.135°
平近点角 80.848°
近地点: 622.675km
远地点: 625.331km
周期: 97.186分钟
每日圈数: 14.816874
详细信息
使用方式:
暂无
2D轨道图
3D轨道图
轨道高度分析图
轨道倾角分析图
轨道综合分析图
查看轨道综合分析图